Location: The Stocker AstroScience Center
(25.7579°N, 80.3725°W)
Time: 18:08:36
(UTC-05:00)

ISS - All Passes

Search period start: 25 November 2014 00:00
Search period end: 05 December 2014 00:00
Orbit: 407 x 417 km, 51.6° (Epoch: 25 November)

Date Brightness Start Highest point End Pass type
(mag) Time Alt. Az. Time Alt. Az. Time Alt. Az.
25 Nov - 06:54:08 10° N 06:56:26 18° NE 06:58:44 10° E daylight
25 Nov - 08:30:17 10° WNW 08:33:01 24° SW 08:35:46 10° S daylight
25 Nov - 21:53:04 10° S 21:55:44 23° SE 21:58:23 10° ENE night (unlit)
25 Nov - 23:29:57 10° W 23:32:18 18° NW 23:34:38 10° N night (unlit)
26 Nov - 07:40:05 10° NW 07:43:19 56° SW 07:46:33 10° SSE daylight
26 Nov - 21:05:13 10° SE 21:06:01 11° SE 21:06:49 10° ESE night (unlit)
26 Nov - 22:39:18 10° WSW 22:42:20 35° NW 22:45:23 10° NNE night (unlit)
27 Nov - 06:50:12 10° NNW 06:53:27 58° NE 06:56:42 10° SE daylight
27 Nov - 21:49:05 10° SW 21:52:22 84° NW 21:55:39 10° NE night (unlit)
28 Nov - 06:00:34 10° NNW 06:03:24 26° NE 06:06:15 10° ESE visible
28 Nov - 07:37:52 10° W 07:39:49 15° SW 07:41:46 10° SSW daylight
28 Nov - 20:59:17 10° SSW 21:02:22 39° SE 21:05:27 10° ENE night (unlit)
28 Nov - 22:37:40 10° WNW 22:39:05 12° NW 22:40:30 10° NNW night (unlit)
29 Nov - 05:11:21 10° N 05:13:11 14° NE 05:15:01 10° ENE visible
29 Nov - 06:46:52 10° WNW 06:49:50 32° SW 06:52:49 10° SSE daylight
29 Nov - 20:10:03 10° S 20:12:19 17° SE 20:14:35 10° E night (unlit)
29 Nov - 21:46:05 10° W 21:48:46 23° NW 21:51:26 10° NNE night (unlit)
30 Nov - 05:56:26 10° NW 05:59:43 80° SW 06:02:59 10° SE visible
30 Nov - 20:55:15 10° WSW 20:58:26 48° NW 21:01:37 10° NNE night (unlit)
01 Dec - 05:06:16 10° NNW 05:09:25 41° NE 05:12:32 10° ESE visible
01 Dec - 20:04:50 10° SSW 20:08:05 68° SE 20:11:21 10° NE visible
02 Dec - 04:16:24 10° N 04:18:56 20° NE 04:21:27 10° E visible
02 Dec - 05:52:55 10° WNW 05:55:25 20° SW 05:57:54 10° S visible
02 Dec - 19:14:51 10° S 19:17:42 27° SE 19:20:33 10° ENE visible
02 Dec - 20:52:11 10° W 20:54:17 16° NW 20:56:22 10° N night (unlit)
03 Dec - 03:27:22 10° NNE 03:28:16 11° NE 03:29:09 10° NE night (unlit)
03 Dec - 05:01:51 10° NW 05:05:01 46° SW 05:08:10 10° SSE visible
03 Dec - 18:25:47 10° SSE 18:27:16 13° SE 18:28:46 10° E visible
03 Dec - 20:00:39 10° WSW 20:03:35 30° NW 20:06:33 10° NNE visible
04 Dec - 04:11:11 10° NW 04:14:27 69° NE 04:17:42 10° SE visible
04 Dec - 19:09:38 10° SW 19:12:53 72° NW 19:16:10 10° NE visible
